Regional Weather Roundup
Issued by NWS

Home | Current Version | Previous Version | Text Only | Print | Product List | Glossary On
Versions: 1 2 3 4 5 6 7 8 9 10 11 12 13 14 15 16 17 18 19 20 21 22 23 24 25 26 27 28 29 30 31 32 33 34 35 36 37 38 39 40 41 42 43 44 45 46 47 48 49 50
000
ASUS46 KSTO 250004
RWRCA

NORTHERN AND CENTRAL CA REGIONAL WEATHER ROUNDUP
NATIONAL WEATHER SERVICE SACRAMENTO CA
500 PM PDT THU APR 24 2014

NOTE: FAIR INDICATES FEW OR NO CLOUDS BELOW 12,000 FEET WITH NO
SIGNIFICANT WEATHER AND/OR OBSTRUCTIONS TO VISIBILITY.

CAZ001-003-250100-
NORTHWEST AREA

CITY           SKY/WX    TMP DP  RH WIND       PRES   REMARKS
CRESCENT CITY  CLOUDY    53  48  83 S6        30.04F
UKIAH          CLOUDY    64  50  60 SW7       29.99F
$$

CAZ006-505>513-250100-
BAY AREA

CITY           SKY/WX    TMP DP  RH WIND       PRES   REMARKS
SANTA ROSA     CLOUDY    62  52  69 W18G25    30.00F
SAN RAFAEL     N/A       65  MM  MM MISG
NAPA           CLOUDY    62  53  72 W18       30.01F
CONCORD        PTSUNNY   64  52  64 SW14      30.02F
OAKLAND CITY   N/A       65  MM  MM MISG
OAKLAND        CLOUDY    63  51  65 W14G24    30.05F
SAN FRAN CITY  N/A       58  MM  80 MISG
SAN FRAN ARPT  CLOUDY    62  53  72 W18       30.05F
LIVERMORE      CLOUDY    65  50  58 W16       30.01F
HAYWARD        PTSUNNY   59  52  77 W16       30.04F
REDWOOD CITY   N/A       MM  MM  MM MISG
MOFFETT ARPT   PTSUNNY   66  49  54 NW14      30.03F
SAN JOSE ARPT  CLOUDY    65  49  56 NW17      30.02F
$$
CAZ034-037-514>518-250100-
CENTRAL COAST

CITY           SKY/WX    TMP DP  RH WIND       PRES   REMARKS
WATSONVILLE    MOSUNNY   62  53  72 SW6       30.02F
SALINAS        SUNNY     63  49  60 W14       30.04F
MONTEREY       MOSUNNY   62  50  64 W10       30.05F
SAN LUIS OBISP SUNNY     63  49  60 NW22G33   29.98R
SANTA MARIA    SUNNY     64  49  57 NW29G35   29.95F
$$
CAZ015-016-250100-
NORTHERN SACRAMENTO VALLEY

CITY           SKY/WX    TMP DP  RH WIND       PRES   REMARKS
REDDING        CLOUDY    66  49  54 S9        29.92S
RED BLUFF      CLOUDY    71  45  39 S13       29.91F
OROVILLE       CLOUDY    74  41  30 S12       29.94F
$$
CAZ016>018-250100-
SOUTHERN SACRAMENTO VALLEY

CITY           SKY/WX    TMP DP  RH WIND       PRES   REMARKS
AUBURN         MOSUNNY   66  45  45 S9        29.98F
LINCOLN        FAIR      72  37  28 S8        29.93F
MARYSVILLE     MOSUNNY   74  44  34 S9        29.92F
SAC INTL ARPT  CLOUDY    73  49  42 S17       29.94F
MATHER AIRPORT PTSUNNY   72  46  40 S10       29.96F
DOWNTOWN SAC   N/A       72  MM  MM MISG
SAC EXEC ARPT  MOSUNNY   70  53  54 SW10      29.96F
VACAVILLE      PTSUNNY   66  53  63 SW24      29.98F
$$
CAZ019>021-250100-
SAN JOAQUIN VALLEY

CITY           SKY/WX    TMP DP  RH WIND       PRES   REMARKS
STOCKTON       PTSUNNY   73  50  44 NW16G22   29.96F
MODESTO        PTSUNNY   74  40  29 W17       29.95F
MERCED         PTSUNNY   75  43  31 NW12      29.94F
LEMOORE        MOSUNNY   83  47  28 N13G18    29.94F
FRESNO         MOSUNNY   80  41  24 NW12      29.94F
HANFORD        SUNNY     79  40  24 VRB6      29.93F
PORTERVILLE    SUNNY     75  43  31 NW9       29.96F
BAKERSFIELD    SUNNY     77  40  26 NW9       29.94F
$$
CAZ011-012-071-250100-
NORTHERN MOUNTAINS

CITY           SKY/WX    TMP DP  RH WIND       PRES   REMARKS
YREKA          PTSUNNY   60  35  39 SW21G31   29.91S
MOUNT SHASTA   CLOUDY    54  40  59 SE3       29.93F
ALTURAS        CLOUDY    55  27  34 W24G31    29.94F
$$
CAZ011-012-071-250100-
SIERRA NEVADA MTNS

CITY           SKY/WX    TMP DP  RH WIND       PRES   REMARKS
BLUE CANYON    CLOUDY    51  34  52 SW9G18    30.05F
TRUCKEE        PTSUNNY   55  25  30 S8G21     30.03
TAHOE VLY ARPT MOSUNNY   55  25  31 S18G30    30.01F
MAMMOTH LAKES  PTSUNNY   61  23  23 SW7G16    30.03F
$$




USA.gov is the U.S. government's official web portal to all federal, state and local government web resources and services.